Time,TemperatureF,DewpointF,PressureIn,WindDirection,WindDirectionDegrees,WindSpeedMPH,WindSpeedGustMPH,Humidity,HourlyPrecipIn,Conditions,Clouds,dailyrainin,SoftwareType,DateUTC
2013-02-19 00:03:00,75.2,67.9,30.03,ENE,68,5.4,154.4,78,0.00,,---,0.00,VWS V14.01,2013-02-19 04:03:00,
2013-02-19 00:08:00,75.2,67.9,30.03,SSE,158,6.9,154.4,78,0.00,,---,0.00,VWS V14.01,2013-02-19 04:08:00,
2013-02-19 00:13:00,75.2,67.5,30.02,West,270,4.7,154.4,77,0.00,,---,0.00,VWS V14.01,2013-02-19 04:13:00,
2013-02-19 00:18:00,75.4,68.1,30.02,SSE,158,5.6,154.4,78,0.00,,---,0.00,VWS V14.01,2013-02-19 04:18:00,
2013-02-19 00:23:00,75.4,68.4,30.02,NNW,338,4.9,154.4,79,0.00,,---,0.00,VWS V14.01,2013-02-19 04:23:00,
2013-02-19 00:28:00,75.4,68.4,30.02,ESE,112,4.7,154.4,79,0.00,,---,0.00,VWS V14.01,2013-02-19 04:28:00,
2013-02-19 00:33:00,75.2,68.6,30.02,ESE,112,5.4,154.4,80,0.00,,---,0.00,VWS V14.01,2013-02-19 04:33:00,
2013-02-19 00:38:00,74.7,65.1,30.02,East,90,5.8,154.4,72,0.00,,---,0.00,VWS V14.01,2013-02-19 04:38:00,
2013-02-19 00:43:00,74.5,66.1,30.02,SE,135,6.5,154.4,75,0.00,,---,0.00,VWS V14.01,2013-02-19 04:43:00,
2013-02-19 00:48:00,74.5,66.1,30.02,East,90,5.4,154.4,75,0.00,,---,0.00,VWS V14.01,2013-02-19 04:48:00,
2013-02-19 00:53:00,74.9,67.6,30.01,SSE,158,4.9,154.4,78,0.00,,---,0.00,VWS V14.01,2013-02-19 04:53:00,
2013-02-19 00:58:00,75.2,68.6,30.01,SSE,158,7.4,154.4,80,0.00,,---,0.00,VWS V14.01,2013-02-19 04:58:00,
2013-02-19 01:00:00,75.2,68.6,30.01,SE,135,4.7,154.4,80,0.00,,---,0.00,VWS V14.01,2013-02-19 05:00:00,
2013-02-19 01:05:00,75.2,68.2,30.01,ENE,68,4.5,154.4,79,0.00,,---,0.00,VWS V14.01,2013-02-19 05:05:00,
2013-02-19 01:11:00,75.2,68.2,30.01,SSE,158,2.5,154.4,79,0.00,,---,0.00,VWS V14.01,2013-02-19 05:11:00,
2013-02-19 01:16:00,75.1,68.2,30.01,SE,135,4.0,154.4,79,0.00,,---,0.00,VWS V14.01,2013-02-19 05:16:00,
2013-02-19 01:21:00,75.2,68.6,30.01,NNE,22,4.0,154.4,80,0.00,,---,0.00,VWS V14.01,2013-02-19 05:21:00,
2013-02-19 01:26:00,75.2,69.0,30.00,NW,315,3.1,154.4,81,0.00,,---,0.00,VWS V14.01,2013-02-19 05:26:00,
2013-02-19 01:31:00,75.2,69.3,30.00,SSE,158,5.1,154.4,82,0.00,,---,0.00,VWS V14.01,2013-02-19 05:31:00,
2013-02-19 01:36:00,75.2,69.0,30.01,NW,315,7.6,154.4,81,0.00,,---,0.00,VWS V14.01,2013-02-19 05:36:00,
2013-02-19 01:41:00,74.9,67.9,30.00,SSE,158,7.6,154.4,79,0.00,,---,0.00,VWS V14.01,2013-02-19 05:41:00,
2013-02-19 01:46:00,74.2,64.6,30.00,ESE,112,4.9,154.4,72,0.00,,---,0.00,VWS V14.01,2013-02-19 05:46:00,
2013-02-19 01:51:00,74.3,65.5,30.00,NE,45,5.4,154.4,74,0.00,,---,0.00,VWS V14.01,2013-02-19 05:51:00,
2013-02-19 01:56:00,74.9,67.6,29.99,SSE,158,3.6,154.4,78,0.00,,---,0.00,VWS V14.01,2013-02-19 05:56:00,
2013-02-19 02:01:00,74.9,67.6,29.99,SE,135,5.1,154.4,78,0.00,,---,0.00,VWS V14.01,2013-02-19 06:01:00,
2013-02-19 02:06:00,75.1,67.4,29.99,SE,135,4.7,154.4,77,0.00,,---,0.00,VWS V14.01,2013-02-19 06:06:00,
2013-02-19 02:11:00,74.9,65.3,30.00,ESE,112,7.4,154.4,72,0.00,,---,0.00,VWS V14.01,2013-02-19 06:11:00,
2013-02-19 02:16:00,75.1,67.0,29.99,NW,315,4.7,154.4,76,0.00,,---,0.00,VWS V14.01,2013-02-19 06:16:00,
2013-02-19 02:21:00,74.5,67.2,29.99,NW,315,6.3,154.4,78,0.00,,---,0.00,VWS V14.01,2013-02-19 06:21:00,
2013-02-19 02:26:00,73.8,67.2,29.99,SW,225,6.3,154.4,80,0.00,,---,0.00,VWS V14.01,2013-02-19 06:26:00,
2013-02-19 02:31:00,73.8,67.6,29.99,ENE,68,3.8,154.4,81,0.00,,---,0.00,VWS V14.01,2013-02-19 06:31:00,
2013-02-19 02:36:00,73.8,68.0,29.99,SSE,158,2.2,154.4,82,0.00,,---,0.00,VWS V14.01,2013-02-19 06:36:00,
2013-02-19 02:41:00,74.0,68.5,29.99,ENE,68,4.0,154.4,83,0.00,,---,0.00,VWS V14.01,2013-02-19 06:41:00,
2013-02-19 02:47:00,74.2,68.7,29.99,East,90,4.0,154.4,83,0.00,,---,0.00,VWS V14.01,2013-02-19 06:47:00,
2013-02-19 02:52:00,74.3,68.1,29.99,NNE,22,4.9,154.4,81,0.00,,---,0.00,VWS V14.01,2013-02-19 06:52:00,
2013-02-19 02:57:00,74.5,68.3,29.99,NE,45,4.3,154.4,81,0.00,,---,0.00,VWS V14.01,2013-02-19 06:57:00,
2013-02-19 03:02:00,74.5,67.9,29.99,NE,45,2.9,154.4,80,0.00,,---,0.00,VWS V14.01,2013-02-19 07:02:00,
2013-02-19 03:07:00,74.5,67.2,29.98,NW,315,4.0,154.4,78,0.00,,---,0.00,VWS V14.01,2013-02-19 07:07:00,
2013-02-19 03:12:00,74.7,67.8,29.99,North,0,5.4,154.4,79,0.00,,---,0.00,VWS V14.01,2013-02-19 07:12:00,
2013-02-19 03:17:00,74.7,67.0,29.99,NE,45,5.8,154.4,77,0.00,,---,0.00,VWS V14.01,2013-02-19 07:17:00,
2013-02-19 03:22:00,74.5,68.3,29.99,ESE,112,5.8,154.4,81,0.00,,---,0.00,VWS V14.01,2013-02-19 07:22:00,
2013-02-19 03:27:00,74.2,68.0,29.99,East,90,3.1,154.4,81,0.00,,---,0.00,VWS V14.01,2013-02-19 07:27:00,
2013-02-19 03:32:00,73.6,68.1,29.99,SE,135,5.4,154.4,83,0.00,,---,0.00,VWS V14.01,2013-02-19 07:32:00,
2013-02-19 03:37:00,73.4,67.9,29.98,SE,135,4.9,154.4,83,0.00,,---,0.00,VWS V14.01,2013-02-19 07:37:00,
2013-02-19 03:42:00,73.4,67.6,29.98,ESE,112,4.5,154.4,82,0.00,,---,0.00,VWS V14.01,2013-02-19 07:42:00,
2013-02-19 03:47:00,73.6,67.4,29.99,WSW,248,6.0,154.4,81,0.00,,---,0.00,VWS V14.01,2013-02-19 07:47:00,
2013-02-19 03:52:00,73.3,67.8,29.99,South,180,3.8,154.4,83,0.00,,---,0.00,VWS V14.01,2013-02-19 07:52:00,
2013-02-19 03:57:00,72.7,67.2,29.98,ESE,112,4.7,154.4,83,0.00,,---,0.00,VWS V14.01,2013-02-19 07:57:00,
2013-02-19 04:02:00,72.7,67.2,29.98,ESE,112,4.0,154.4,83,0.00,,---,0.00,VWS V14.01,2013-02-19 08:02:00,
2013-02-19 04:07:00,72.7,66.9,29.98,SE,135,6.5,154.4,82,0.00,,---,0.00,VWS V14.01,2013-02-19 08:07:00,
2013-02-19 04:13:00,73.1,65.8,29.98,NNW,338,3.6,154.4,78,0.00,,---,0.00,VWS V14.01,2013-02-19 08:13:00,
2013-02-19 04:18:00,73.6,67.1,29.98,East,90,2.7,154.4,80,0.00,,---,0.00,VWS V14.01,2013-02-19 08:18:00,
2013-02-19 04:23:00,74.2,68.0,29.98,SSE,158,6.9,154.4,81,0.00,,---,0.00,VWS V14.01,2013-02-19 08:23:00,
2013-02-19 04:28:00,74.3,68.1,29.98,NNE,22,5.1,154.4,81,0.00,,---,0.00,VWS V14.01,2013-02-19 08:28:00,
2013-02-19 04:33:00,74.5,67.2,29.98,SE,135,6.7,154.4,78,0.00,,---,0.00,VWS V14.01,2013-02-19 08:33:00,
2013-02-19 04:38:00,74.9,67.2,29.98,SE,135,6.9,154.4,77,0.00,,---,0.00,VWS V14.01,2013-02-19 08:38:00,
2013-02-19 04:43:00,75.1,67.0,29.98,East,90,4.9,154.4,76,0.00,,---,0.00,VWS V14.01,2013-02-19 08:43:00,
2013-02-19 04:48:00,75.2,67.1,29.98,West,270,7.2,154.4,76,0.00,,---,0.00,VWS V14.01,2013-02-19 08:48:00,
2013-02-19 04:53:00,75.2,67.1,29.98,NE,45,4.9,154.4,76,0.00,,---,0.00,VWS V14.01,2013-02-19 08:53:00,
2013-02-19 04:58:00,75.2,67.1,29.98,South,180,6.9,154.4,76,0.00,,---,0.00,VWS V14.01,2013-02-19 08:58:00,
2013-02-19 05:03:00,75.1,66.6,29.98,SSE,158,8.7,154.4,75,0.00,,---,0.00,VWS V14.01,2013-02-19 09:03:00,
2013-02-19 05:08:00,75.1,66.2,29.98,ENE,68,5.4,154.4,74,0.00,,---,0.00,VWS V14.01,2013-02-19 09:08:00,
2013-02-19 05:13:00,75.1,66.6,29.98,SE,135,7.8,154.4,75,0.00,,---,0.00,VWS V14.01,2013-02-19 09:13:00,
2013-02-19 05:18:00,74.9,66.1,29.99,NNW,338,8.3,154.4,74,0.00,,---,0.00,VWS V14.01,2013-02-19 09:18:00,
2013-02-19 05:23:00,75.1,66.6,29.98,North,0,5.1,154.4,75,0.00,,---,0.00,VWS V14.01,2013-02-19 09:23:00,
2013-02-19 05:28:00,75.1,66.6,29.99,ENE,68,6.9,154.4,75,0.00,,---,0.00,VWS V14.01,2013-02-19 09:28:00,
2013-02-19 05:33:00,74.9,66.8,29.99,ESE,112,6.9,154.4,76,0.00,,---,0.00,VWS V14.01,2013-02-19 09:33:00,
2013-02-19 05:38:00,74.9,65.7,29.99,SSE,158,7.4,154.4,73,0.00,,---,0.00,VWS V14.01,2013-02-19 09:38:00,
2013-02-19 05:43:00,74.9,66.4,29.99,ESE,112,4.5,154.4,75,0.00,,---,0.00,VWS V14.01,2013-02-19 09:43:00,
2013-02-19 05:48:00,74.9,66.4,29.99,ESE,112,5.4,154.4,75,0.00,,---,0.00,VWS V14.01,2013-02-19 09:48:00,
2013-02-19 05:53:00,74.9,65.7,29.99,SSE,158,6.9,154.4,73,0.00,,---,0.00,VWS V14.01,2013-02-19 09:53:00,
2013-02-19 05:58:00,75.1,65.1,29.99,ESE,112,7.2,154.4,71,0.00,,---,0.00,VWS V14.01,2013-02-19 09:58:00,
2013-02-19 06:03:00,75.2,65.2,29.99,East,90,7.6,154.4,71,0.00,,---,0.00,VWS V14.01,2013-02-19 10:03:00,
2013-02-19 06:08:00,75.2,65.6,29.99,West,270,5.6,154.4,72,0.00,,---,0.00,VWS V14.01,2013-02-19 10:08:00,
2013-02-19 06:14:00,75.2,65.6,29.99,WSW,248,6.9,154.4,72,0.00,,---,0.00,VWS V14.01,2013-02-19 10:14:00,
2013-02-19 06:19:00,75.2,66.7,29.99,ENE,68,5.1,154.4,75,0.00,,---,0.00,VWS V14.01,2013-02-19 10:19:00,
2013-02-19 06:24:00,75.1,66.6,30.00,ENE,68,6.3,154.4,75,0.00,,---,0.00,VWS V14.01,2013-02-19 10:24:00,
2013-02-19 06:29:00,74.9,66.1,30.00,SSE,158,6.9,154.4,74,0.00,,---,0.00,VWS V14.01,2013-02-19 10:29:00,
2013-02-19 06:34:00,74.9,65.7,30.00,SSW,202,5.1,154.4,73,0.00,,---,0.00,VWS V14.01,2013-02-19 10:34:00,
2013-02-19 06:39:00,74.9,65.7,30.00,ESE,112,6.7,154.4,73,0.00,,---,0.00,VWS V14.01,2013-02-19 10:39:00,
2013-02-19 06:44:00,74.9,65.7,30.01,South,180,6.0,154.4,73,0.00,,---,0.00,VWS V14.01,2013-02-19 10:44:00,
2013-02-19 06:49:00,75.1,66.2,30.01,ENE,68,4.9,154.4,74,0.00,,---,0.00,VWS V14.01,2013-02-19 10:49:00,
2013-02-19 06:54:00,75.2,66.0,30.01,SE,135,8.3,154.4,73,0.00,,---,0.00,VWS V14.01,2013-02-19 10:54:00,
2013-02-19 06:59:00,75.6,67.1,30.01,ESE,112,6.3,154.4,75,0.00,,---,0.00,VWS V14.01,2013-02-19 10:59:00,
2013-02-19 07:04:00,76.0,67.1,30.01,North,0,9.2,154.4,74,0.00,,---,0.00,VWS V14.01,2013-02-19 11:04:00,
2013-02-19 07:09:00,76.5,67.6,30.01,ESE,112,5.4,154.4,74,0.00,,---,0.00,VWS V14.01,2013-02-19 11:09:00,
2013-02-19 07:14:00,76.9,67.6,30.02,SE,135,6.9,154.4,73,0.00,,---,0.00,VWS V14.01,2013-02-19 11:14:00,
2013-02-19 07:19:00,77.2,67.1,30.02,ESE,112,6.5,154.4,71,0.00,,---,0.00,VWS V14.01,2013-02-19 11:19:00,
2013-02-19 07:24:00,76.9,66.8,30.02,East,90,6.7,154.4,71,0.00,,---,0.00,VWS V14.01,2013-02-19 11:24:00,
2013-02-19 07:29:00,76.1,67.2,30.02,ESE,112,7.8,154.4,74,0.00,,---,0.00,VWS V14.01,2013-02-19 11:29:00,
2013-02-19 07:35:00,75.8,67.3,30.02,SSE,158,4.9,154.4,75,0.00,,---,0.00,VWS V14.01,2013-02-19 11:35:00,
2013-02-19 07:40:00,75.8,67.7,30.02,SE,135,4.3,154.4,76,0.00,,---,0.00,VWS V14.01,2013-02-19 11:40:00,
2013-02-19 07:45:00,75.6,66.3,30.03,SSE,158,6.3,154.4,73,0.00,,---,0.00,VWS V14.01,2013-02-19 11:45:00,
2013-02-19 07:50:00,75.1,65.1,30.03,SSW,202,5.4,154.4,71,0.00,,---,0.00,VWS V14.01,2013-02-19 11:50:00,
2013-02-19 07:55:00,75.1,67.0,30.02,NNE,22,4.0,154.4,76,0.00,,---,0.00,VWS V14.01,2013-02-19 11:55:00,
2013-02-19 08:00:00,76.5,68.0,30.03,SE,135,6.3,154.4,75,0.00,,---,0.00,VWS V14.01,2013-02-19 12:00:00,
2013-02-19 08:05:00,77.8,68.1,30.03,East,90,6.3,154.4,72,0.00,,---,0.00,VWS V14.01,2013-02-19 12:05:00,
2013-02-19 08:10:00,78.5,68.3,30.03,ESE,112,6.0,154.4,71,0.00,,---,0.00,VWS V14.01,2013-02-19 12:10:00,
2013-02-19 08:15:00,78.8,68.6,30.03,SE,135,6.7,154.4,71,0.00,,---,0.00,VWS V14.01,2013-02-19 12:15:00,
2013-02-19 08:20:00,79.2,69.0,30.03,East,90,6.9,154.4,71,0.00,,---,0.00,VWS V14.01,2013-02-19 12:20:00,
2013-02-19 08:26:00,79.6,69.0,30.03,NE,45,6.3,154.4,70,0.00,,---,0.00,VWS V14.01,2013-02-19 12:26:00,
2013-02-19 08:31:00,79.7,68.6,30.03,NNE,22,7.4,154.4,69,0.00,,---,0.00,VWS V14.01,2013-02-19 12:31:00,
2013-02-19 08:36:00,79.7,68.2,30.04,SE,135,5.4,154.4,68,0.00,,---,0.00,VWS V14.01,2013-02-19 12:36:00,
2013-02-19 08:41:00,79.4,67.9,30.04,ENE,68,5.4,154.4,68,0.00,,---,0.00,VWS V14.01,2013-02-19 12:41:00,
2013-02-19 08:46:00,79.6,68.1,30.04,NW,315,3.8,154.4,68,0.00,,---,0.00,VWS V14.01,2013-02-19 12:46:00,
2013-02-19 08:51:00,79.6,68.5,30.04,NE,45,5.8,154.4,69,0.00,,---,0.00,VWS V14.01,2013-02-19 12:51:00,
2013-02-19 08:56:00,78.3,68.9,30.04,NE,45,5.4,154.4,73,0.00,,---,0.00,VWS V14.01,2013-02-19 12:56:00,
2013-02-19 09:01:00,77.4,68.1,30.04,West,270,6.0,154.4,73,0.00,,---,0.00,VWS V14.01,2013-02-19 13:01:00,
2013-02-19 09:06:00,77.2,68.3,30.04,South,180,6.9,154.4,74,0.00,,---,0.00,VWS V14.01,2013-02-19 13:06:00,
2013-02-19 09:11:00,77.0,67.3,30.05,ENE,68,4.0,154.4,72,0.00,,---,0.00,VWS V14.01,2013-02-19 13:11:00,
2013-02-19 09:16:00,77.4,66.4,30.05,SE,135,6.7,154.4,69,0.00,,---,0.00,VWS V14.01,2013-02-19 13:16:00,
2013-02-19 09:21:00,77.8,66.8,30.04,East,90,3.8,154.4,69,0.00,,---,0.00,VWS V14.01,2013-02-19 13:21:00,
2013-02-19 09:26:00,77.9,67.3,30.05,NNW,338,6.9,154.4,70,0.00,,---,0.00,VWS V14.01,2013-02-19 13:26:00,
2013-02-19 09:31:00,78.5,67.5,30.05,SW,225,4.5,154.4,69,0.00,,---,0.00,VWS V14.01,2013-02-19 13:31:00,
2013-02-19 09:36:00,79.2,67.3,30.05,SSE,158,4.9,154.4,67,0.00,,---,0.00,VWS V14.01,2013-02-19 13:36:00,
2013-02-19 09:41:00,80.3,67.9,30.05,ESE,112,7.6,154.4,66,0.00,,---,0.00,VWS V14.01,2013-02-19 13:41:00,
2013-02-19 09:46:00,80.3,68.3,30.05,ESE,112,6.3,154.4,67,0.00,,---,0.00,VWS V14.01,2013-02-19 13:46:00,
2013-02-19 09:52:00,80.3,68.3,30.05,East,90,6.9,154.4,67,0.00,,---,0.00,VWS V14.01,2013-02-19 13:52:00,
2013-02-19 09:57:00,80.3,68.8,30.05,NNE,22,4.0,154.4,68,0.00,,---,0.00,VWS V14.01,2013-02-19 13:57:00,
2013-02-19 10:02:00,80.3,69.2,30.05,SE,135,5.6,154.4,69,0.00,,---,0.00,VWS V14.01,2013-02-19 14:02:00,
2013-02-19 10:07:00,79.9,68.8,30.05,SE,135,5.1,154.4,69,0.00,,---,0.00,VWS V14.01,2013-02-19 14:07:00,
2013-02-19 10:12:00,79.6,68.5,30.05,SE,135,6.0,154.4,69,0.00,,---,0.00,VWS V14.01,2013-02-19 14:12:00,
2013-02-19 10:17:00,79.6,69.8,30.05,ENE,68,5.4,154.4,72,0.00,,---,0.00,VWS V14.01,2013-02-19 14:17:00,
2013-02-19 10:22:00,79.6,70.6,30.05,ENE,68,6.0,154.4,74,0.00,,---,0.00,VWS V14.01,2013-02-19 14:22:00,
2013-02-19 10:27:00,79.2,70.6,30.05,NW,315,3.4,154.4,75,0.00,,---,0.00,VWS V14.01,2013-02-19 14:27:00,
2013-02-19 10:32:00,79.4,70.8,30.05,ESE,112,4.3,154.4,75,0.00,,---,0.00,VWS V14.01,2013-02-19 14:32:00,
2013-02-19 10:37:00,79.4,68.8,30.05,ESE,112,5.4,154.4,70,0.00,,---,0.00,VWS V14.01,2013-02-19 14:37:00,
2013-02-19 10:42:00,80.1,68.6,30.05,SE,135,3.1,154.4,68,0.00,,---,0.00,VWS V14.01,2013-02-19 14:42:00,
2013-02-19 10:47:00,80.6,68.6,30.05,South,180,6.0,154.4,67,0.00,,---,0.00,VWS V14.01,2013-02-19 14:47:00,
2013-02-19 10:52:00,81.0,69.0,30.04,SE,135,4.9,154.4,67,0.00,,---,0.00,VWS V14.01,2013-02-19 14:52:00,
2013-02-19 10:57:00,81.4,69.0,30.04,NNE,22,4.5,154.4,66,0.00,,---,0.00,VWS V14.01,2013-02-19 14:57:00,
2013-02-19 11:02:00,81.7,69.2,30.04,North,0,6.7,154.4,66,0.00,,---,0.00,VWS V14.01,2013-02-19 15:02:00,
2013-02-19 11:07:00,81.7,68.8,30.04,NNE,22,6.3,154.4,65,0.00,,---,0.00,VWS V14.01,2013-02-19 15:07:00,
2013-02-19 11:12:00,81.4,69.0,30.04,NW,315,5.1,154.4,66,0.00,,---,0.00,VWS V14.01,2013-02-19 15:12:00,
2013-02-19 11:17:00,81.4,69.0,30.04,SE,135,5.8,154.4,66,0.00,,---,0.00,VWS V14.01,2013-02-19 15:17:00,
2013-02-19 11:22:00,81.4,69.0,30.04,SSE,158,4.5,154.4,66,0.00,,---,0.00,VWS V14.01,2013-02-19 15:22:00,
2013-02-19 11:27:00,81.2,68.8,30.04,ENE,68,6.5,154.4,66,0.00,,---,0.00,VWS V14.01,2013-02-19 15:27:00,
2013-02-19 11:33:00,80.6,68.6,30.04,South,180,6.9,154.4,67,0.00,,---,0.00,VWS V14.01,2013-02-19 15:33:00,
2013-02-19 11:38:00,80.3,69.2,30.04,ENE,68,3.8,154.4,69,0.00,,---,0.00,VWS V14.01,2013-02-19 15:38:00,
2013-02-19 11:43:00,80.3,69.2,30.04,NE,45,5.4,154.4,69,0.00,,---,0.00,VWS V14.01,2013-02-19 15:43:00,
2013-02-19 11:48:00,80.3,69.2,30.04,North,0,4.7,154.4,69,0.00,,---,0.00,VWS V14.01,2013-02-19 15:48:00,
2013-02-19 11:53:00,80.5,69.0,30.04,ESE,112,8.9,154.4,68,0.00,,---,0.00,VWS V14.01,2013-02-19 15:53:00,
2013-02-19 11:58:00,80.3,68.8,30.03,SE,135,5.6,154.4,68,0.00,,---,0.00,VWS V14.01,2013-02-19 15:58:00,
2013-02-19 12:03:00,80.5,69.0,30.03,North,0,8.1,154.4,68,0.00,,---,0.00,VWS V14.01,2013-02-19 16:03:00,
2013-02-19 12:08:00,80.8,69.3,30.03,East,90,3.8,154.4,68,0.00,,---,0.00,VWS V14.01,2013-02-19 16:08:00,
2013-02-19 12:13:00,81.0,69.4,30.03,South,180,8.1,154.4,68,0.00,,---,0.00,VWS V14.01,2013-02-19 16:13:00,
2013-02-19 12:18:00,81.0,69.9,30.02,NNE,22,5.1,154.4,69,0.00,,---,0.00,VWS V14.01,2013-02-19 16:18:00,
2013-02-19 12:23:00,81.2,69.6,30.02,ESE,112,6.9,154.4,68,0.00,,---,0.00,VWS V14.01,2013-02-19 16:23:00,
2013-02-19 12:28:00,80.8,68.8,30.02,ENE,68,4.9,154.4,67,0.00,,---,0.00,VWS V14.01,2013-02-19 16:28:00,
2013-02-19 12:33:00,80.8,68.4,30.02,NE,45,6.3,154.4,66,0.00,,---,0.00,VWS V14.01,2013-02-19 16:33:00,
2013-02-19 12:38:00,80.6,68.2,30.02,SSE,158,6.9,154.4,66,0.00,,---,0.00,VWS V14.01,2013-02-19 16:38:00,
2013-02-19 12:43:00,80.6,68.2,30.02,NE,45,6.0,154.4,66,0.00,,---,0.00,VWS V14.01,2013-02-19 16:43:00,
2013-02-19 12:48:00,80.3,67.9,30.02,WSW,248,5.8,154.4,66,0.00,,---,0.00,VWS V14.01,2013-02-19 16:48:00,
2013-02-19 12:53:00,80.3,67.9,30.01,NE,45,5.1,154.4,66,0.00,,---,0.00,VWS V14.01,2013-02-19 16:53:00,
2013-02-19 12:58:00,80.1,68.6,30.01,SE,135,6.0,154.4,68,0.00,,---,0.00,VWS V14.01,2013-02-19 16:58:00,
2013-02-19 13:04:00,80.1,69.0,30.01,SSW,202,6.7,154.4,69,0.00,,---,0.00,VWS V14.01,2013-02-19 17:04:00,
2013-02-19 13:09:00,80.1,68.6,30.01,South,180,9.4,154.4,68,0.00,,---,0.00,VWS V14.01,2013-02-19 17:09:00,
2013-02-19 13:14:00,80.1,68.2,30.01,East,90,8.5,154.4,67,0.00,,---,0.00,VWS V14.01,2013-02-19 17:14:00,
2013-02-19 13:19:00,79.9,67.5,30.00,ENE,68,6.0,154.4,66,0.00,,---,0.00,VWS V14.01,2013-02-19 17:19:00,
2013-02-19 13:24:00,79.9,66.7,30.00,SE,135,5.8,154.4,64,0.00,,---,0.00,VWS V14.01,2013-02-19 17:24:00,
2013-02-19 13:29:00,79.9,67.1,29.99,SE,135,6.5,154.4,65,0.00,,---,0.00,VWS V14.01,2013-02-19 17:29:00,
2013-02-19 13:34:00,80.1,67.7,30.00,East,90,8.5,154.4,66,0.00,,---,0.00,VWS V14.01,2013-02-19 17:34:00,
2013-02-19 13:39:00,80.3,67.9,29.99,NNE,22,8.1,154.4,66,0.00,,---,0.00,VWS V14.01,2013-02-19 17:39:00,
2013-02-19 13:44:00,80.1,67.7,29.99,NE,45,5.8,154.4,66,0.00,,---,0.00,VWS V14.01,2013-02-19 17:44:00,
2013-02-19 13:49:00,80.1,67.7,29.99,NNE,22,3.6,154.4,66,0.00,,---,0.00,VWS V14.01,2013-02-19 17:49:00,
2013-02-19 13:54:00,79.9,67.1,29.99,NNE,22,5.6,154.4,65,0.00,,---,0.00,VWS V14.01,2013-02-19 17:54:00,
2013-02-19 13:59:00,80.1,67.7,29.99,SSE,158,5.4,154.4,66,0.00,,---,0.00,VWS V14.01,2013-02-19 17:59:00,
2013-02-19 14:04:00,80.3,67.5,29.99,East,90,4.3,154.4,65,0.00,,---,0.00,VWS V14.01,2013-02-19 18:04:00,
2013-02-19 14:09:00,80.1,67.3,29.99,ENE,68,9.4,154.4,65,0.00,,---,0.00,VWS V14.01,2013-02-19 18:09:00,
2013-02-19 14:14:00,79.9,67.5,29.99,ESE,112,6.0,154.4,66,0.00,,---,0.00,VWS V14.01,2013-02-19 18:14:00,
2013-02-19 14:19:00,80.1,68.2,29.99,North,0,4.0,154.4,67,0.00,,---,0.00,VWS V14.01,2013-02-19 18:19:00,
2013-02-19 14:24:00,79.9,68.4,29.99,ENE,68,6.9,154.4,68,0.00,,---,0.00,VWS V14.01,2013-02-19 18:24:00,
2013-02-19 14:29:00,79.6,67.7,29.98,SSW,202,8.5,154.4,67,0.00,,---,0.00,VWS V14.01,2013-02-19 18:29:00,
2013-02-19 14:34:00,79.2,67.3,29.98,SSE,158,5.1,154.4,67,0.00,,---,0.00,VWS V14.01,2013-02-19 18:34:00,
2013-02-19 14:39:00,79.2,66.9,29.98,South,180,5.6,154.4,66,0.00,,---,0.00,VWS V14.01,2013-02-19 18:39:00,
2013-02-19 14:44:00,79.4,67.1,29.98,NW,315,6.7,154.4,66,0.00,,---,0.00,VWS V14.01,2013-02-19 18:44:00,
2013-02-19 14:50:00,79.4,67.5,29.97,SSE,158,5.1,154.4,67,0.00,,---,0.00,VWS V14.01,2013-02-19 18:50:00,
2013-02-19 14:55:00,79.4,67.1,29.97,SE,135,9.8,154.4,66,0.00,,---,0.00,VWS V14.01,2013-02-19 18:55:00,
2013-02-19 15:00:00,79.0,66.7,29.97,SE,135,4.3,154.4,66,0.00,,---,0.00,VWS V14.01,2013-02-19 19:00:00,
2013-02-19 15:05:00,79.0,67.1,29.97,ESE,112,8.5,154.4,67,0.00,,---,0.00,VWS V14.01,2013-02-19 19:05:00,
2013-02-19 15:10:00,78.8,67.4,29.97,ESE,112,6.9,154.4,68,0.00,,---,0.00,VWS V14.01,2013-02-19 19:10:00,
2013-02-19 15:15:00,78.5,67.1,29.97,SE,135,6.3,154.4,68,0.00,,---,0.00,VWS V14.01,2013-02-19 19:15:00,
2013-02-19 15:20:00,78.7,67.3,29.97,NE,45,5.4,154.4,68,0.00,,---,0.00,VWS V14.01,2013-02-19 19:20:00,
2013-02-19 15:25:00,78.7,67.3,29.97,North,0,4.9,154.4,68,0.00,,---,0.00,VWS V14.01,2013-02-19 19:25:00,
2013-02-19 15:30:00,78.5,67.5,29.96,NW,315,4.9,154.4,69,0.00,,---,0.00,VWS V14.01,2013-02-19 19:30:00,
2013-02-19 15:35:00,78.3,67.3,29.97,SW,225,6.0,154.4,69,0.00,,---,0.00,VWS V14.01,2013-02-19 19:35:00,
2013-02-19 15:40:00,78.1,67.5,29.97,NNE,22,2.7,154.4,70,0.00,,---,0.00,VWS V14.01,2013-02-19 19:40:00,
2013-02-19 15:45:00,78.1,67.5,29.96,South,180,5.4,154.4,70,0.00,,---,0.00,VWS V14.01,2013-02-19 19:45:00,
2013-02-19 15:50:00,78.1,67.5,29.97,ENE,68,5.6,154.4,70,0.00,,---,0.00,VWS V14.01,2013-02-19 19:50:00,
2013-02-19 15:55:00,78.1,67.9,29.97,North,0,7.6,154.4,71,0.00,,---,0.00,VWS V14.01,2013-02-19 19:55:00,
2013-02-19 16:00:00,78.1,67.9,29.97,WSW,248,6.3,154.4,71,0.00,,---,0.00,VWS V14.01,2013-02-19 20:00:00,
2013-02-19 16:05:00,78.1,67.9,29.96,ESE,112,5.1,154.4,71,0.00,,---,0.00,VWS V14.01,2013-02-19 20:05:00,
2013-02-19 16:10:00,78.1,67.5,29.96,South,180,6.7,154.4,70,0.00,,---,0.00,VWS V14.01,2013-02-19 20:10:00,
2013-02-19 16:16:00,77.9,67.8,29.97,NE,45,6.0,154.4,71,0.00,,---,0.00,VWS V14.01,2013-02-19 20:16:00,
2013-02-19 16:21:00,77.8,67.7,29.97,SSE,158,4.3,154.4,71,0.00,,---,0.00,VWS V14.01,2013-02-19 20:21:00,
2013-02-19 16:26:00,77.6,68.3,29.97,NNW,338,4.9,154.4,73,0.00,,---,0.00,VWS V14.01,2013-02-19 20:26:00,
2013-02-19 16:31:00,77.4,67.7,29.97,SE,135,5.8,154.4,72,0.00,,---,0.00,VWS V14.01,2013-02-19 20:31:00,
2013-02-19 16:36:00,77.2,67.9,29.97,NNW,338,5.6,154.4,73,0.00,,---,0.00,VWS V14.01,2013-02-19 20:36:00,
2013-02-19 16:41:00,77.2,67.9,29.97,ESE,112,5.6,154.4,73,0.00,,---,0.00,VWS V14.01,2013-02-19 20:41:00,
2013-02-19 16:46:00,77.2,67.9,29.97,ENE,68,6.7,154.4,73,0.00,,---,0.00,VWS V14.01,2013-02-19 20:46:00,
2013-02-19 16:51:00,77.4,68.5,29.97,SE,135,4.9,154.4,74,0.00,,---,0.00,VWS V14.01,2013-02-19 20:51:00,
2013-02-19 16:56:00,77.2,67.9,29.97,ESE,112,4.9,154.4,73,0.00,,---,0.00,VWS V14.01,2013-02-19 20:56:00,
2013-02-19 17:01:00,77.0,67.7,29.97,North,0,4.0,154.4,73,0.00,,---,0.00,VWS V14.01,2013-02-19 21:01:00,
2013-02-19 17:06:00,77.0,67.7,29.97,SSW,202,6.0,154.4,73,0.00,,---,0.00,VWS V14.01,2013-02-19 21:06:00,
2013-02-19 17:11:00,77.0,67.7,29.97,North,0,4.3,154.4,73,0.00,,---,0.00,VWS V14.01,2013-02-19 21:11:00,
2013-02-19 17:16:00,77.0,67.3,29.97,East,90,2.9,154.4,72,0.00,,---,0.00,VWS V14.01,2013-02-19 21:16:00,
2013-02-19 17:21:00,77.2,67.5,29.98,SE,135,6.5,154.4,72,0.00,,---,0.00,VWS V14.01,2013-02-19 21:21:00,
2013-02-19 17:26:00,77.2,67.5,29.98,SSW,202,6.3,154.4,72,0.00,,---,0.00,VWS V14.01,2013-02-19 21:26:00,
2013-02-19 17:31:00,77.0,67.7,29.98,SSW,202,5.4,154.4,73,0.00,,---,0.00,VWS V14.01,2013-02-19 21:31:00,
2013-02-19 17:36:00,77.0,68.1,29.98,WSW,248,4.9,154.4,74,0.00,,---,0.00,VWS V14.01,2013-02-19 21:36:00,
2013-02-19 17:41:00,77.0,68.5,29.98,SE,135,3.8,154.4,75,0.00,,---,0.00,VWS V14.01,2013-02-19 21:41:00,
2013-02-19 17:46:00,76.9,68.4,29.98,SSE,158,6.0,154.4,75,0.00,,---,0.00,VWS V14.01,2013-02-19 21:46:00,
2013-02-19 17:52:00,76.7,67.4,29.98,ESE,112,6.3,154.4,73,0.00,,---,0.00,VWS V14.01,2013-02-19 21:52:00,
2013-02-19 17:57:00,76.5,67.6,29.98,North,0,6.5,154.4,74,0.00,,---,0.00,VWS V14.01,2013-02-19 21:57:00,
2013-02-19 18:02:00,76.5,68.0,29.98,West,270,3.8,154.4,75,0.00,,---,0.00,VWS V14.01,2013-02-19 22:02:00,
2013-02-19 18:07:00,76.7,68.6,29.98,ESE,112,7.6,154.4,76,0.00,,---,0.00,VWS V14.01,2013-02-19 22:07:00,
2013-02-19 18:12:00,76.5,68.4,29.98,North,0,5.4,154.4,76,0.00,,---,0.00,VWS V14.01,2013-02-19 22:12:00,
2013-02-19 18:17:00,76.3,68.6,29.98,ESE,112,6.0,154.4,77,0.00,,---,0.00,VWS V14.01,2013-02-19 22:17:00,
2013-02-19 18:22:00,76.1,68.4,29.98,SE,135,4.7,154.4,77,0.00,,---,0.00,VWS V14.01,2013-02-19 22:22:00,
2013-02-19 18:27:00,76.1,68.8,29.99,NE,45,5.4,154.4,78,0.00,,---,0.00,VWS V14.01,2013-02-19 22:27:00,
2013-02-19 18:32:00,76.1,68.8,29.98,WNW,292,5.1,154.4,78,0.00,,---,0.00,VWS V14.01,2013-02-19 22:32:00,
2013-02-19 18:37:00,76.1,68.8,29.98,SSE,158,5.4,154.4,78,0.00,,---,0.00,VWS V14.01,2013-02-19 22:37:00,
2013-02-19 18:42:00,76.1,68.8,29.98,North,0,8.5,154.4,78,0.00,,---,0.00,VWS V14.01,2013-02-19 22:42:00,
2013-02-19 18:47:00,76.0,68.3,29.98,ENE,68,7.6,154.4,77,0.00,,---,0.00,VWS V14.01,2013-02-19 22:47:00,
2013-02-19 18:52:00,75.8,68.1,29.99,SSE,158,6.3,154.4,77,0.00,,---,0.00,VWS V14.01,2013-02-19 22:52:00,
2013-02-19 18:57:00,75.8,68.1,29.99,NNE,22,4.7,154.4,77,0.00,,---,0.00,VWS V14.01,2013-02-19 22:57:00,
2013-02-19 19:03:00,76.0,68.7,29.98,SSE,158,3.4,154.4,78,0.00,,---,0.00,VWS V14.01,2013-02-19 23:03:00,
2013-02-19 19:08:00,76.0,68.7,29.98,NW,315,6.0,154.4,78,0.00,,---,0.00,VWS V14.01,2013-02-19 23:08:00,
2013-02-19 19:13:00,75.8,68.5,29.98,NE,45,4.7,154.4,78,0.00,,---,0.00,VWS V14.01,2013-02-19 23:13:00,
2013-02-19 19:18:00,75.6,68.6,29.98,SSW,202,4.7,154.4,79,0.00,,---,0.00,VWS V14.01,2013-02-19 23:18:00,
2013-02-19 19:23:00,75.6,68.3,29.98,SE,135,4.7,154.4,78,0.00,,---,0.00,VWS V14.01,2013-02-19 23:23:00,
2013-02-19 19:28:00,75.6,68.3,29.99,SSE,158,8.3,154.4,78,0.00,,---,0.00,VWS V14.01,2013-02-19 23:28:00,
2013-02-19 19:33:00,75.6,68.3,29.99,SSE,158,4.7,154.4,78,0.00,,---,0.00,VWS V14.01,2013-02-19 23:33:00,
2013-02-19 19:38:00,75.4,67.7,29.99,SE,135,5.8,154.4,77,0.00,,---,0.00,VWS V14.01,2013-02-19 23:38:00,
2013-02-19 19:43:00,75.6,67.9,29.99,South,180,4.0,154.4,77,0.00,,---,0.00,VWS V14.01,2013-02-19 23:43:00,
2013-02-19 19:48:00,75.8,68.1,29.99,SSE,158,6.9,154.4,77,0.00,,---,0.00,VWS V14.01,2013-02-19 23:48:00,
2013-02-19 19:53:00,75.8,68.1,29.99,East,90,6.7,154.4,77,0.00,,---,0.00,VWS V14.01,2013-02-19 23:53:00,
2013-02-19 19:58:00,75.8,68.1,29.99,ESE,112,4.7,154.4,77,0.00,,---,0.00,VWS V14.01,2013-02-19 23:58:00,
2013-02-19 20:03:00,75.6,68.3,29.99,ENE,68,4.9,154.4,78,0.00,,---,0.00,VWS V14.01,2013-02-20 00:03:00,
2013-02-19 20:08:00,75.6,68.3,30.00,SSE,158,6.7,154.4,78,0.00,,---,0.00,VWS V14.01,2013-02-20 00:08:00,
2013-02-19 20:13:00,75.4,68.1,30.00,ESE,112,6.3,154.4,78,0.00,,---,0.00,VWS V14.01,2013-02-20 00:13:00,
2013-02-19 20:18:00,75.4,68.1,30.00,NE,45,3.8,154.4,78,0.00,,---,0.00,VWS V14.01,2013-02-20 00:18:00,
2013-02-19 20:23:00,75.4,68.1,30.00,ENE,68,6.7,154.4,78,0.00,,---,0.00,VWS V14.01,2013-02-20 00:23:00,
2013-02-19 20:28:00,75.6,69.0,30.00,SSE,158,9.8,154.4,80,0.00,,---,0.00,VWS V14.01,2013-02-20 00:28:00,
2013-02-19 20:34:00,74.2,68.4,30.01,SE,135,7.4,154.4,82,0.00,,---,0.00,VWS V14.01,2013-02-20 00:34:00,
2013-02-19 20:39:00,73.1,68.0,30.01,SSW,202,6.3,154.4,84,0.00,,---,0.00,VWS V14.01,2013-02-20 00:39:00,
2013-02-19 20:44:00,72.7,67.6,30.00,SE,135,4.0,154.4,84,0.00,,---,0.00,VWS V14.01,2013-02-20 00:44:00,
2013-02-19 20:49:00,72.5,67.4,30.01,SE,135,7.6,154.4,84,0.00,,---,0.00,VWS V14.01,2013-02-20 00:49:00,
2013-02-19 20:54:00,72.7,68.3,30.01,SSE,158,4.7,154.4,86,0.00,,---,0.00,VWS V14.01,2013-02-20 00:54:00,
2013-02-19 20:59:00,72.7,68.3,30.01,NNE,22,3.4,154.4,86,0.00,,---,0.00,VWS V14.01,2013-02-20 00:59:00,
2013-02-19 21:04:00,72.7,68.3,30.01,NE,45,5.6,154.4,86,0.00,,---,0.00,VWS V14.01,2013-02-20 01:04:00,
2013-02-19 21:09:00,72.9,68.5,30.01,South,180,5.8,154.4,86,0.00,,---,0.00,VWS V14.01,2013-02-20 01:09:00,
2013-02-19 21:14:00,72.9,68.5,30.01,NNW,338,4.5,154.4,86,0.00,,---,0.00,VWS V14.01,2013-02-20 01:14:00,
2013-02-19 21:19:00,73.1,68.0,30.01,SSE,158,5.1,154.4,84,0.00,,---,0.00,VWS V14.01,2013-02-20 01:19:00,
2013-02-19 21:24:00,73.4,67.9,30.01,SSE,158,6.3,154.4,83,0.00,,---,0.00,VWS V14.01,2013-02-20 01:24:00,
2013-02-19 21:29:00,73.8,67.6,30.01,SSE,158,3.4,154.4,81,0.00,,---,0.00,VWS V14.01,2013-02-20 01:29:00,
2013-02-19 21:34:00,74.2,67.6,30.01,West,270,5.4,154.4,80,0.00,,---,0.00,VWS V14.01,2013-02-20 01:34:00,
2013-02-19 21:39:00,74.3,68.1,30.02,NNE,22,5.6,154.4,81,0.00,,---,0.00,VWS V14.01,2013-02-20 01:39:00,
2013-02-19 21:44:00,74.5,68.3,30.02,SE,135,4.0,154.4,81,0.00,,---,0.00,VWS V14.01,2013-02-20 01:44:00,
2013-02-19 21:49:00,74.5,68.3,30.02,SSE,158,5.8,154.4,81,0.00,,---,0.00,VWS V14.01,2013-02-20 01:49:00,
2013-02-19 21:54:00,74.5,68.3,30.02,ESE,112,5.4,154.4,81,0.00,,---,0.00,VWS V14.01,2013-02-20 01:54:00,
2013-02-19 21:59:00,74.7,68.1,30.02,South,180,7.2,154.4,80,0.00,,---,0.00,VWS V14.01,2013-02-20 01:59:00,
2013-02-19 22:04:00,74.7,68.5,30.02,WSW,248,5.1,154.4,81,0.00,,---,0.00,VWS V14.01,2013-02-20 02:04:00,
2013-02-19 22:09:00,74.7,68.1,30.02,SE,135,4.0,154.4,80,0.00,,---,0.00,VWS V14.01,2013-02-20 02:09:00,
2013-02-19 22:14:00,74.9,68.7,30.02,North,0,4.7,154.4,81,0.00,,---,0.00,VWS V14.01,2013-02-20 02:14:00,
2013-02-19 22:19:00,74.9,69.0,30.02,ENE,68,5.4,154.4,82,0.00,,---,0.00,VWS V14.01,2013-02-20 02:19:00,
2013-02-19 22:25:00,74.9,69.0,30.02,SE,135,4.7,154.4,82,0.00,,---,0.00,VWS V14.01,2013-02-20 02:25:00,
2013-02-19 22:30:00,74.9,69.0,30.02,SE,135,4.0,154.4,82,0.00,,---,0.00,VWS V14.01,2013-02-20 02:30:00,
2013-02-19 22:35:00,74.7,69.2,30.02,SE,135,5.6,154.4,83,0.00,,---,0.00,VWS V14.01,2013-02-20 02:35:00,
2013-02-19 22:40:00,74.5,69.0,30.02,SE,135,4.0,154.4,83,0.00,,---,0.00,VWS V14.01,2013-02-20 02:40:00,
2013-02-19 22:45:00,74.5,69.3,30.02,SW,225,3.1,154.4,84,0.00,,---,0.00,VWS V14.01,2013-02-20 02:45:00,
2013-02-19 22:50:00,74.5,69.3,30.02,SE,135,4.0,154.4,84,0.00,,---,0.00,VWS V14.01,2013-02-20 02:50:00,
2013-02-19 22:55:00,74.5,69.0,30.02,SE,135,4.7,154.4,83,0.00,,---,0.00,VWS V14.01,2013-02-20 02:55:00,
2013-02-19 23:00:00,74.9,69.4,30.02,SE,135,6.3,154.4,83,0.00,,---,0.00,VWS V14.01,2013-02-20 03:00:00,
2013-02-19 23:05:00,74.9,68.7,30.02,SE,135,6.5,154.4,81,0.00,,---,0.00,VWS V14.01,2013-02-20 03:05:00,
2013-02-19 23:10:00,75.1,68.2,30.02,SSW,202,8.1,154.4,79,0.00,,---,0.00,VWS V14.01,2013-02-20 03:10:00,
2013-02-19 23:15:00,75.2,68.2,30.01,ENE,68,7.2,154.4,79,0.00,,---,0.00,VWS V14.01,2013-02-20 03:15:00,
2013-02-19 23:20:00,75.2,68.2,30.01,SW,225,7.6,154.4,79,0.00,,---,0.00,VWS V14.01,2013-02-20 03:20:00,
2013-02-19 23:25:00,75.4,68.4,30.01,SE,135,6.7,154.4,79,0.00,,---,0.00,VWS V14.01,2013-02-20 03:25:00,
2013-02-19 23:30:00,75.4,68.4,30.01,NNW,338,6.3,154.4,79,0.00,,---,0.00,VWS V14.01,2013-02-20 03:30:00,
2013-02-19 23:35:00,75.4,68.1,30.01,SSE,158,6.3,154.4,78,0.00,,---,0.00,VWS V14.01,2013-02-20 03:35:00,
2013-02-19 23:40:00,75.6,68.6,30.01,East,90,5.1,154.4,79,0.00,,---,0.00,VWS V14.01,2013-02-20 03:40:00,
2013-02-19 23:45:00,75.6,68.3,30.01,ESE,112,7.4,154.4,78,0.00,,---,0.00,VWS V14.01,2013-02-20 03:45:00,
2013-02-19 23:51:00,75.4,68.4,30.01,ENE,68,5.6,154.4,79,0.00,,---,0.00,VWS V14.01,2013-02-20 03:51:00,
2013-02-19 23:56:00,75.4,68.8,30.00,NNE,22,6.9,154.4,80,0.00,,---,0.00,VWS V14.01,2013-02-20 03:56:00,